Location: Newark
(48.3453°N, 0.5589°E)
Time: 00:38:22
(UTC+00:00)

A-11 Canister half - Pass Details

Date: 11 December 2019
Orbit: 1517 x 1683 km, 47.2° (Epoch: 27 January)

Event Time Altitude Azimuth Distance (km) Brightness Sun altitude
Rises 13:44:59 0° 257° (WSW) 4,773 12.2 14.2°
Reaches altitude 10° 13:48:02 10° 256° (WSW) 3,810 11.8 14.0°
Maximum altitude 13:57:48 82° 171° (S) 1,657 9.6 13.2°
Drops below altitude 10° 14:07:54 10° 86° (E) 3,931 10.8 12.3°
Sets 14:11:05 0° 85° (E) 4,929 11.3 12.1°
